Simultaneous Nadir Overpasses (SNOs) Predictions

Prediction of SNOs between GOES-17 and AQUA Satellite Orbit:

Table of predicted SNOs for the next 14.0 days since TLE Epoch: 4/1/2023
Index Date Time (GOES-17) GOES-17 Lat,Lon AQUA Lat,Lon Distance(km) Time Diff (sec)
1 04/01/2023 08:53:58 -0.00,-104.75 0.38,-106.48 196.26 80
2 04/03/2023 08:37:35 -0.01,-104.76 -0.36,-103.14 184.76 80
3 04/03/2023 20:58:34 0.01,-104.76 -0.76,-108.22 393.92 80
4 04/05/2023 20:44:50 0.01,-104.77 0.01,-104.88 12.10 80
5 04/07/2023 20:33:45 0.00,-104.77 0.71,-101.52 370.56 80
6 04/08/2023 08:54:34 -0.00,-104.78 0.41,-106.56 203.30 80
7 04/10/2023 08:38:07 -0.00,-104.78 -0.32,-103.20 178.99 80
8 04/10/2023 20:59:06 0.01,-104.77 -0.77,-108.28 399.95 80
9 04/12/2023 20:45:18 0.01,-104.77 -0.01,-104.92 17.62 80
10 04/14/2023 20:34:08 0.02,-104.76 0.70,-101.55 365.26 80
